Regional Weather Roundup
Issued by NWS Burlington, VT

Home | Current Version | Previous Version | Text Only | Print | Product List | Glossary On
Versions: 1 2 3 4 5 6 7 8 9 10 11 12 13 14 15 16 17 18 19 20 21 22 23 24 25 26 27 28 29 30 31 32 33 34 35 36 37 38 39 40 41 42 43 44 45 46 47 48 49 50
000
ASUS41 KBTV 311430
RWRBTV
VERMONT REGIONAL WEATHER ROUNDUP
NATIONAL WEATHER SERVICE BURLINGTON VT
1000 AM EDT THU JUL 31 2014

NOTE: "FAIR" INDICATES FEW OR NO CLOUDS BELOW 12,000 FEET WITH NO
SIGNIFICANT WEATHER AND/OR OBSTRUCTIONS TO VISIBILITY.

* THESE REPORTS ARE NOT UNDER NWS QUALITY CONTROL AND/OR DO NOT
  REPORT WEATHER SUCH AS PRECIPITATION AND FOG.

VTZ001>019-311500-
_____VERMONT_____


CITY           SKY/WX    TMP DP  RH WIND       PRES   REMARKS
BURLINGTON     PTSUNNY   69  56  62 S8        30.03S
MONTPELIER     PTSUNNY   66  54  65 SW7       30.10S
MORRISVILLE    PTSUNNY   68  57  68 VRB3      30.06F
ST. JOHNSBURY*   N/A     59  55  87 MISG      30.06F
LYNDONVILLE*   PTSUNNY   62  53  73 SE7       30.10S
MIDDLEBURY*    FAIR      66  59  76 S6        30.04F
RUTLAND*       PTSUNNY   66  57  72 S5        30.06F
SPRINGFIELD    LGT RAIN  60  56  86 CALM      30.10S
HIGHGATE*      PTSUNNY   70  58  66 S10       30.01F
NEWPORT*       FAIR      66  56  72 S7        30.06S
BENNINGTON     LGT RAIN  63  58  83 E6        30.08S
GALLUP MILLS*    N/A     46 N/A N/A MISG        N/A
UNION VILLAGE*   N/A     63 N/A N/A MISG        N/A
MT. MANSFIELD*   N/A     55 N/A N/A SW3G16      N/A

_____LAKE CHAMPLAIN_____


CITY           SKY/WX    TMP DP  RH WIND       PRES   REMARKS
COLCHESTER RF*   N/A     64  57  77 S18         N/A
DIAMOND ISL*     N/A     66  57  72 S15         N/A

$$

NYZ007-026>031-035-052-083-311500-
_____NORTHERN NEW YORK_____


CITY           SKY/WX    TMP DP  RH WIND       PRES   REMARKS
PLATTSBURGH    PTSUNNY   66  60  81 SE9       30.01F
SARANAC LAKE   CLOUDY    62  53  72 S6        30.02F
MASSENA        CLOUDY    66  59  78 CALM      29.99F
OGDENSBURG*    LGT RAIN  63  61  94 S5        29.98F
POTSDAM*       CLOUDY    63  57  82 W18G28    30.01R
PARISHVILLE*     N/A     64 N/A N/A S8          N/A
WATERTOWN      CLOUDY    62  57  83 VRB5      30.00S
FT DRUM        CLOUDY    59  59 100 SE7       30.00F
ALBANY         CLOUDY    64  58  80 S9        30.07S
GLENS FALLS    CLOUDY    65  59  81 S7        30.05F

$$
NHZ002-005-011-311500-
_____NEW HAMPSHIRE_____


CITY           SKY/WX    TMP DP  RH WIND       PRES   REMARKS
LEBANON        CLOUDY    63  57  81 CALM      30.07F
KEENE          PTSUNNY   66  54  63 W5        30.10R
MT WASHINGTON  FOG       45  45 100 S21G26      N/A  VSB 0
PLYMOUTH       FAIR      60  59  97 CALM      30.09S
WHITEFIELD     LGT RAIN  59  55  87 CALM      30.08F

$$

_____REGIONAL QUEBEC LOCATIONS_____


CITY           SKY/WX    TMP DP  RH WIND       PRES   REMARKS
MONTREAL       PTSUNNY   66  55  68 SW6       30.01S
QUEBEC CITY    LGT RAIN  64  59  82 E6        30.04S
SHERBROOKE     MOSUNNY   64  57  77 N3        30.06S

_____REGIONAL ONTARIO LOCATIONS_____


CITY           SKY/WX    TMP DP  RH WIND       PRES   REMARKS
OTTAWA         LGT RAIN  63  61  94 VRB2      29.97F

______KEY______
VSB  - VISIBILITY IN MILES
WCI  - WIND CHILL INDEX
HX   - HEAT INDEX
$$
NNNN


USA.gov is the U.S. government's official web portal to all federal, state and local government web resources and services.